Location: Caltech
(34.1382°N, 118.1253°W)
Time: 05:55:02
(UTC-07:00)

NOAA 19 - Visible Passes

Search period start: 26 September 2017 00:00
Search period end: 06 October 2017 00:00
Orbit: 842 x 862 km, 99.1° (Epoch: 25 September)

Date Brightness Start Highest point End Pass type
(mag) Time Alt. Az. Time Alt. Az. Time Alt. Az.
26 Sep 5.9 04:15:00 10° NNE 04:20:23 51° E 04:22:19 35° SSE visible
26 Sep 6.6 05:56:51 10° NNW 06:00:36 19° WNW 06:04:20 10° WSW visible
27 Sep 6.4 04:03:40 10° NNE 04:08:50 39° E 04:10:36 31° SE visible
27 Sep 6.3 05:44:54 10° NNW 05:49:14 24° WNW 05:52:37 14° WSW visible
28 Sep 6.8 03:52:25 10° NE 03:57:17 30° E 03:58:52 26° SE visible
28 Sep 6.0 05:33:03 10° N 05:37:49 30° WNW 05:40:53 18° WSW visible
29 Sep 7.2 03:41:18 10° NE 03:45:42 24° E 03:47:09 21° ESE visible
29 Sep 5.7 05:21:18 10° N 05:26:24 39° WNW 05:29:10 23° WSW visible
30 Sep 7.5 03:30:22 10° NE 03:34:05 18° E 03:35:24 17° ESE visible
30 Sep 5.4 05:09:37 10° N 05:14:58 50° WNW 05:17:26 30° SW visible
01 Oct 7.8 03:19:44 10° ENE 03:22:29 14° E 03:23:41 13° ESE visible
01 Oct 5.2 04:58:00 10° N 05:03:30 64° WNW 05:05:41 36° SW visible
02 Oct 5.1 04:46:27 10° NNE 04:52:01 82° WNW 04:53:58 43° SSW visible
03 Oct 5.2 04:34:57 10° NNE 04:40:32 78° ESE 04:42:13 46° S visible
03 Oct 7.0 06:18:16 10° NW 06:20:27 12° WNW 06:22:39 10° W visible
04 Oct 5.6 04:23:30 10° NNE 04:29:00 61° ESE 04:30:29 45° SSE visible
04 Oct 6.7 06:05:51 10° NNW 06:09:06 16° WNW 06:12:23 10° W visible
05 Oct 6.1 04:12:07 10° NNE 04:17:28 46° E 04:18:45 40° SE visible
05 Oct 6.5 05:53:46 10° NNW 05:57:45 21° WNW 06:00:45 14° WSW visible
